Temperature
16 16 16 16 15 15 15 15 15 15 15 15 15 15 15 15 15 15 15 15 15 15 15 15 15 15 15 15 15 15 15 15 15 15 15 15 15 15 15 15 15 15 15
15 15 15 15 15 15 15 15 15 15 15 15 15 15 15 15 15 15 15 15 15 15 15 15 15 15 15 15 15 15 15 15 15 15 15 15 15 15 15 15 15 15 15
15 15 15 15 15 15 15 15 15 15 15 15 15 15 15 15 15 15 15 14 14 15 15 15 15 15 14 14 15 15 15 15 15 15 15 15 15 15 15 15 15 15 15
15 15 15 15 15 15 15 15 15 15 15 15 15 15 14 14 14 14 14 14 14 14 14 15 15 15 14 14 14 14 14 14 14 14 14 14 14 15 15 15 15 15 15
15 15 15 15 14 14 14 14 14 15 14 14 14 14 14 14 14 14 14 14 14 14 14 14 14 14 14 14 14 14 14 14 14 14 14 14 14 14 14 14 14 14 14
15 15 15 14 14 14 14 14 14 14 14 14 14 14 14 14 14 14 14 14 14 14 14 14 14 14 14 14 14 14 14 14 14 14 14 14 14 14 14 14 14 14 14
15 15 14 14 14 14 14 14 14 14 14 14 14 14 14 14 14 14 14 14 14 14 14 14 13 13 13 14 14 14 14 14 14 14 14 14 14 14 14 14 14 14 13
15 15 14 14 14 14 14 14 14 14 14 14 14 14 15 14 13 13 13 13 13 13 13 13 13 13 13 13 13 13 13 13 13 13 13 13 13 13 13 13 13 13 13
15 14 14 14 14 14 14 14 14 14 14 14 14 14 15 15 14 14 13 13 13 13 13 13 13 13 13 13 13 13 13 13 13 13 13 13 13 13 13 13 13 13 13
15 14 14 14 14 14 14 14 14 13 14 13 14 14 14 14 14 14 13 13 13 13 13 13 13 13 13 13 13 13 13 13 13 13 13 13 13 13 13 13 13 13 13
15 14 14 14 14 14 14 14 13 13 13 13 13 13 13 13 14 14 14 13 13 13 13 13 13 13 12 12 12 12 13 13 13 13 13 13 12 12 12 12 12 12 12
15 14 14 14 14 14 14 13 13 13 13 13 13 13 13 13 14 14 14 13 13 13 13 13 13 12 12 12 12 12 12 12 12 12 12 12 12 12 12 12 12 12 12
15 14 14 14 14 14 14 13 13 13 13 13 13 13 13 13 13 13 14 13 13 13 13 12 13 12 12 12 12 12 12 12 12 12 12 12 12 12 12 12 12 12 12
14 14 14 14 14 14 13 13 13 13 13 13 13 13 13 13 13 13 13 13 13 13 13 13 13 12 12 12 12 12 12 12 12 12 12 12 12 12 12 12 12 12 11
14 14 14 14 14 13 13 13 13 13 13 13 13 13 13 13 13 13 13 13 13 13 13 13 13 12 12 12 12 12 12 12 12 12 12 12 12 12 12 11 11 11 11
14 14 14 14 14 13 13 13 13 13 13 13 13 13 13 13 13 12 12 12 12 13 13 13 12 12 12 12 12 12 12 12 12 12 12 12 11 11 11 11 11 11 11
14 14 14 14 13 13 13 13 13 13 13 13 13 12 12 12 12 12 12 12 12 12 12 12 12 12 12 12 12 12 11 11 11 12 12 11 11 11 11 11 11 11 11
14 14 13 13 13 13 13 13 13 13 13 13 12 12 12 12 12 12 12 12 12 12 12 12 12 12 12 11 11 11 11 11 11 11 11 11 11 11 11 11 11 11 11
13 13 13 13 13 13 13 13 13 13 13 12 12 12 12 12 12 12 12 12 12 12 12 11 11 11 11 11 11 11 11 11 11 11 11 11 11 11 11 11 11 11 11
13 13 13 13 13 13 12 12 12 12 12 12 12 12 12 12 12 12 11 11 11 11 11 11 11 11 11 11 11 11 10 10 10 10 10 11 11 10 10 10 10 10 10
13 12 12 12 12 12 12 12 12 12 12 12 12 12 12 12 12 11 11 11 11 11 11 11 11 11 11 11 10 10 10 10 10 10 10 10 10 10 10 10 10 10 10
12 12 12 12 12 12 12 12 12 12 12 12 11 11 11 11 11 11 11 11 11 11 11 11 11 11 11 11 10 10 10 10 10 10 10 10 10 10 10 10 10 10 10
12 12 12 12 12 12 12 12 12 11 11 11 11 11 11 11 11 11 11 11 11 11 11 11 11 11 10 10 10 10 10 10 10 10 10 9 9 9 9 10 10 10 10
11 11 11 11 11 11 11 11 11 11 11 11 11 11 11 11 11 11 11 10 10 11 11 11 10 10 10 10 10 10 10 9 9 9 9 9 9 9 9 9 10 10 9
11 11 11 11 11 11 11 11 11 10 10 10 11 11 11 11 11 11 10 10 10 10 10 11 10 10 10 10 10 9 9 9 9 9 9 9 9 9 9 9 9 9 9
10 10 10 10 10 10 10 10 10 10 10 10 10 10 10 11 11 10 10 10 10 10 10 10 10 10 10 10 10 9 9 9 9 8 9 9 9 9 8 9 9 9 9
Wind_Speed
4 4 4 4 5 5 5 4 5 6 6 7 7 7 7 7 7 7 9 12 12 12 11 11 11 11 11 11 10 10 9 9 9 8 8 8 8 8 8 7 5 5 5
4 4 4 4 4 5 4 5 6 5 5 6 6 7 6 6 6 6 7 9 12 12 12 12 12 12 11 10 10 9 9 8 8 8 8 8 8 8 7 7 7 6 6
4 4 4 4 4 4 5 5 6 5 5 5 6 6 5 5 5 6 6 6 8 11 12 11 11 11 11 10 10 10 9 8 8 8 8 7 7 7 7 7 7 7 7
3 3 3 3 4 4 4 4 4 4 4 4 4 4 4 4 5 5 5 5 5 6 9 10 10 10 10 10 9 9 8 8 7 6 6 6 6 6 6 6 6 7 7
3 3 2 3 4 3 3 3 3 3 4 4 4 4 4 4 4 4 5 5 6 5 6 8 9 9 9 9 9 8 8 7 6 5 5 5 4 5 5 5 5 5 6
2 3 2 3 3 3 3 3 4 3 3 3 4 4 4 3 3 4 4 4 5 5 5 4 5 7 8 8 8 8 7 6 6 5 4 4 4 4 4 5 5 5 6
2 2 2 3 3 3 3 3 3 4 3 2 2 3 3 3 3 3 3 3 4 4 4 4 3 3 5 7 7 7 7 7 6 5 5 4 4 4 4 4 4 5 5
3 3 3 3 3 3 4 4 3 2 2 1 1 1 1 2 2 2 2 2 3 3 3 3 3 3 3 3 7 7 7 7 7 6 5 4 4 4 3 3 4 4 4
3 4 3 3 3 4 4 4 4 4 3 2 1 1 1 0 1 1 1 1 2 1 2 2 2 3 3 3 3 6 7 7 6 6 6 5 4 4 3 3 3 3 3
4 5 4 4 4 4 4 5 4 4 4 3 2 1 2 1 1 1 1 1 1 0 1 1 1 1 2 2 4 5 6 6 6 6 5 4 4 4 4 3 2 2 3
4 5 5 5 4 4 5 5 4 5 4 3 2 2 2 1 3 2 2 1 1 1 1 1 1 0 1 1 2 5 5 5 6 6 5 4 4 5 4 3 3 2 2
4 5 5 5 5 4 5 5 5 6 5 4 4 3 3 3 3 3 2 2 2 1 1 1 1 1 1 0 1 4 3 3 4 5 5 4 4 4 4 3 3 3 3
4 5 6 6 5 5 5 5 5 5 6 5 5 4 4 4 3 3 3 2 2 2 2 3 2 2 2 2 1 2 1 1 2 3 3 3 3 3 3 3 2 2 2
4 4 5 6 6 6 6 5 5 6 6 6 6 5 4 4 3 3 3 3 3 3 3 3 2 3 3 2 1 3 2 3 1 1 1 2 2 2 2 2 2 2 1
3 4 5 5 5 6 6 6 5 6 6 6 6 6 5 4 4 4 4 4 4 4 3 3 2 3 4 3 3 3 2 3 2 1 0 1 1 1 1 1 1 1 1
4 4 5 5 6 6 6 6 6 6 6 6 5 6 5 4 4 4 4 5 5 5 4 3 3 2 3 3 3 4 2 5 3 3 2 1 1 1 1 1 1 0 0
4 5 5 5 5 6 6 6 6 6 7 7 6 6 6 5 4 4 4 5 5 5 5 4 2 2 3 3 3 4 3 4 3 5 4 3 2 2 1 1 1 1 1
4 4 4 5 5 5 6 6 7 7 7 7 7 7 6 5 6 5 4 5 5 5 5 5 3 3 4 3 3 4 4 4 3 4 5 4 3 3 2 2 1 1 2
4 4 4 5 5 5 6 7 7 7 7 8 8 7 7 7 7 6 6 5 4 4 5 5 4 3 4 4 4 4 4 4 4 4 5 5 5 4 4 3 3 3 3
4 4 4 4 5 5 5 6 7 7 7 7 7 7 7 7 7 7 6 6 5 5 5 5 5 4 4 4 4 4 4 4 4 4 4 4 5 5 6 5 5 4 4
4 4 4 4 4 4 4 5 6 6 7 7 7 7 7 6 6 6 5 6 6 5 5 5 5 5 5 4 5 4 4 4 4 4 4 4 4 4 5 7 7 6 5
5 5 5 5 5 4 3 4 5 6 7 7 7 7 7 6 6 7 7 7 7 8 8 6 6 7 7 6 5 5 5 4 4 3 4 4 3 4 4 4 5 6 6
5 5 5 5 5 4 3 4 6 6 7 7 7 7 6 6 7 8 8 9 9 9 9 9 8 8 7 6 6 7 6 6 5 3 4 4 4 4 4 3 5 7 7
4 4 5 5 4 4 3 4 6 7 7 7 7 7 7 7 7 7 8 8 9 8 9 9 9 8 6 5 6 7 6 5 4 3 4 4 4 4 3 3 6 8 8
4 4 4 4 4 4 3 3 5 6 6 7 7 7 8 8 5 5 8 8 8 7 6 6 6 5 4 4 5 5 5 5 5 4 4 4 4 4 4 4 4 8 8
4 4 4 4 4 4 2 3 5 5 6 5 5 6 6 7 5 6 8 8 9 8 6 6 6 6 7 7 8 8 7 6 5 5 4 4 4 4 4 3 3 5 7
Wind_Direction
86 90 89 85 83 87 90 88 87 86 85 82 78 75 74 75 76 76 75 65 61 66 69 71 71 72 73 73 71 69 66 65 64 62 63 65 63 66 68 66 67 67 68
88 90 91 88 83 85 89 96 97 96 88 84 80 74 71 72 72 75 76 77 70 65 66 67 67 69 70 70 70 70 66 66 65 64 62 61 60 59 63 60 62 61 63
94 92 92 93 90 93 97 95 99 99 96 95 88 79 72 67 66 71 70 69 77 77 71 67 65 65 64 65 66 66 65 64 63 62 59 56 55 59 65 65 63 62 57
101 94 97 100 101 99 99 102 106 104 101 94 85 78 76 72 66 67 73 74 69 75 81 72 65 62 63 64 64 64 64 63 62 60 58 55 56 61 64 61 62 59 56
120 116 110 118 118 115 108 110 106 103 100 91 84 77 70 64 59 61 69 71 74 77 83 87 77 65 60 60 61 58 60 57 55 54 54 50 51 62 69 69 63 59 60
137 134 141 146 137 135 126 121 112 108 105 102 93 82 73 70 65 53 56 66 65 67 69 75 85 82 72 63 58 52 49 48 51 50 49 47 50 62 73 76 70 67 65
167 156 161 158 160 155 151 145 131 129 125 118 117 109 99 75 68 64 58 62 68 60 63 66 62 63 82 81 60 49 41 40 43 46 50 50 49 57 76 81 75 67 64
185 184 184 179 178 170 172 164 158 159 151 176 185 170 156 149 107 82 87 70 59 64 51 52 58 56 46 59 68 51 36 35 36 38 43 44 46 55 65 80 85 74 66
199 202 203 200 192 194 187 184 182 187 190 200 249 275 252 156 120 138 101 101 72 62 57 45 51 49 45 48 59 62 41 29 32 35 41 47 53 55 65 82 91 79 75
206 209 210 211 209 209 201 202 199 201 203 204 210 271 305 322 253 186 178 145 102 39 11 30 47 55 48 53 63 56 46 31 29 33 36 41 46 53 62 70 75 85 86
209 208 215 217 219 217 215 213 208 211 214 223 228 220 224 236 255 255 242 232 217 219 258 274 220 160 66 59 62 65 53 38 33 32 31 40 46 52 55 57 59 70 79
209 208 214 220 221 222 217 214 213 215 226 230 237 236 236 242 243 251 254 246 256 250 235 235 234 209 219 202 95 78 60 43 37 32 32 35 39 43 42 45 55 55 55
217 213 213 220 218 217 218 216 220 222 223 229 238 245 247 250 253 261 259 261 273 260 238 227 212 206 208 212 151 130 120 86 46 32 27 28 29 32 31 33 41 41 46
225 220 219 220 219 220 220 219 226 227 228 229 236 239 242 244 245 248 253 258 265 258 240 231 203 208 215 221 160 211 172 152 125 46 18 15 18 28 40 35 28 30 37
220 217 220 219 218 219 219 217 223 226 228 232 236 238 238 238 237 241 244 249 262 266 261 244 225 217 218 223 188 227 219 138 151 173 237 280 331 31 73 33 29 47 43
215 215 220 218 216 215 216 217 224 229 228 227 233 240 239 238 235 235 237 244 254 267 266 261 249 229 214 219 209 231 216 149 179 190 199 210 207 162 107 59 25 36 292
214 216 217 220 218 216 214 210 219 222 226 227 225 231 233 235 233 234 233 235 241 246 250 259 249 222 218 224 207 226 222 214 188 178 185 186 181 167 142 113 75 120 144
213 217 217 219 216 215 216 218 220 220 223 227 229 230 231 227 233 236 232 231 233 238 240 247 241 227 228 226 225 231 227 225 218 173 185 199 201 197 199 207 212 216 205
212 216 216 218 219 220 218 224 227 228 229 231 232 232 233 232 232 230 230 236 237 236 238 238 240 230 228 221 225 232 234 226 223 194 193 206 207 212 215 217 218 222 223
218 219 220 219 223 227 228 229 230 232 233 234 234 233 233 233 236 232 232 236 237 236 238 239 237 227 225 225 224 227 231 226 226 216 208 212 204 210 219 219 217 216 217
223 222 225 223 222 228 237 240 239 240 238 235 233 234 234 235 252 244 240 237 234 235 236 238 238 234 229 222 227 228 231 233 230 227 222 221 215 218 215 213 213 209 207
222 218 224 228 227 229 232 248 255 246 246 242 238 237 233 227 226 226 238 242 241 239 239 239 240 239 239 235 231 229 230 231 241 215 229 235 231 234 229 226 190 189 203
216 218 223 229 235 235 213 229 249 253 249 245 240 237 234 232 225 230 223 223 233 242 247 249 247 247 244 236 231 229 229 235 245 218 224 242 231 239 228 216 182 195 207
214 220 223 228 240 245 227 236 248 249 251 246 243 242 242 240 231 233 235 235 236 234 235 240 248 251 249 242 234 235 238 238 248 230 226 247 239 242 234 224 184 196 205
219 223 225 226 233 240 221 233 241 249 250 251 251 248 247 248 232 228 240 242 240 237 227 229 248 254 254 241 235 222 219 222 239 235 223 241 242 243 243 235 199 192 199
228 227 228 228 234 243 214 222 244 247 251 253 255 251 249 249 236 220 236 241 244 241 232 217 220 227 229 218 210 221 224 226 237 240 218 226 235 234 245 229 212 200 203
Height
1545 1545 1545 1544 1545 1545 1545 1545 1545 1546 1547 1547 1548 1549 1549 1550 1550 1549 1549 1548 1548 1548 1547 1546 1546 1545 1544 1544 1543 1543 1543 1543 1542 1542 1542 1542 1541 1541 1541 1540 1540 1539 1539
1546 1546 1546 1546 1546 1546 1546 1546 1547 1547 1547 1548 1549 1549 1550 1550 1551 1551 1551 1550 1549 1549 1548 1548 1547 1547 1546 1545 1544 1544 1543 1543 1543 1542 1542 1542 1541 1541 1540 1540 1540 1539 1539
1547 1547 1547 1547 1547 1547 1547 1548 1548 1548 1549 1549 1550 1550 1551 1551 1551 1552 1551 1551 1551 1550 1549 1549 1548 1548 1547 1546 1545 1545 1544 1544 1543 1542 1542 1542 1542 1541 1541 1540 1540 1539 1539
1548 1547 1547 1548 1547 1548 1548 1548 1549 1549 1550 1551 1551 1551 1552 1552 1552 1552 1552 1552 1551 1551 1550 1550 1549 1549 1548 1547 1546 1545 1545 1544 1543 1543 1542 1542 1542 1542 1541 1540 1540 1539 1539
1548 1548 1548 1548 1548 1548 1549 1549 1550 1550 1551 1551 1551 1552 1552 1552 1552 1553 1553 1553 1552 1551 1551 1550 1549 1549 1548 1547 1547 1546 1545 1544 1543 1543 1542 1542 1541 1541 1541 1540 1540 1539 1539
1548 1548 1548 1548 1549 1549 1549 1550 1549 1550 1550 1551 1552 1552 1552 1553 1553 1553 1553 1552 1552 1552 1551 1551 1550 1549 1548 1548 1547 1546 1545 1544 1543 1543 1542 1542 1541 1541 1540 1540 1540 1539 1539
1547 1548 1548 1548 1548 1549 1549 1550 1550 1550 1551 1551 1552 1553 1553 1553 1553 1553 1553 1553 1552 1551 1551 1551 1550 1550 1549 1548 1547 1546 1545 1544 1543 1542 1542 1541 1541 1540 1540 1540 1539 1539 1539
1547 1547 1548 1548 1548 1548 1549 1549 1550 1550 1551 1551 1552 1552 1553 1555 1553 1553 1552 1552 1552 1551 1551 1551 1550 1550 1549 1548 1547 1546 1545 1544 1543 1542 1541 1540 1540 1540 1540 1539 1539 1539 1538
1546 1546 1547 1547 1547 1548 1548 1548 1549 1549 1550 1551 1551 1553 1553 1552 1553 1553 1552 1552 1551 1551 1551 1550 1550 1549 1549 1548 1547 1546 1545 1544 1543 1542 1541 1540 1540 1539 1539 1539 1539 1538 1538
1544 1545 1545 1546 1546 1547 1547 1548 1548 1549 1549 1550 1550 1550 1552 1552 1552 1552 1553 1552 1551 1550 1550 1549 1549 1549 1548 1547 1546 1545 1544 1543 1542 1542 1541 1540 1539 1539 1539 1538 1538 1538 1537
1543 1543 1544 1544 1545 1545 1546 1546 1547 1548 1548 1549 1550 1550 1550 1550 1551 1551 1551 1551 1550 1550 1549 1549 1548 1548 1547 1546 1545 1544 1543 1543 1542 1541 1540 1539 1539 1539 1538 1538 1537 1537 1537
1541 1542 1542 1542 1543 1543 1544 1545 1545 1546 1547 1547 1548 1549 1549 1549 1550 1550 1550 1549 1549 1549 1548 1547 1547 1546 1546 1545 1544 1543 1542 1542 1541 1540 1539 1539 1538 1538 1538 1537 1536 1536 1536
1539 1540 1540 1540 1541 1541 1542 1542 1543 1544 1545 1545 1546 1546 1547 1547 1548 1548 1548 1548 1548 1547 1546 1546 1545 1545 1544 1544 1543 1542 1541 1541 1540 1539 1538 1538 1538 1537 1537 1536 1536 1535 1535
1537 1538 1538 1538 1538 1539 1539 1540 1541 1542 1542 1543 1544 1544 1544 1545 1545 1546 1546 1546 1546 1546 1545 1545 1544 1543 1543 1542 1541 1540 1540 1539 1538 1538 1537 1537 1536 1536 1535 1535 1535 1534 1534
1534 1535 1535 1536 1536 1536 1537 1538 1538 1539 1540 1540 1541 1541 1542 1542 1542 1543 1543 1544 1545 1544 1543 1543 1543 1542 1541 1540 1540 1539 1539 1538 1537 1536 1536 1535 1535 1534 1534 1534 1533 1533 1533
1532 1532 1533 1533 1534 1534 1534 1535 1535 1536 1537 1537 1538 1538 1539 1539 1540 1540 1540 1541 1541 1542 1541 1540 1540 1539 1539 1538 1538 1537 1537 1536 1535 1535 1534 1534 1533 1533 1532 1532 1532 1532 1532
1529 1529 1530 1530 1531 1531 1531 1532 1532 1533 1534 1535 1535 1536 1536 1536 1537 1537 1537 1538 1538 1538 1538 1538 1538 1537 1536 1536 1535 1535 1535 1534 1534 1533 1532 1532 1531 1531 1531 1530 1530 1530 1530
1525 1526 1527 1527 1528 1528 1528 1529 1529 1530 1531 1531 1532 1533 1533 1533 1534 1534 1534 1535 1535 1535 1535 1534 1534 1534 1534 1533 1533 1533 1533 1532 1532 1531 1530 1530 1529 1529 1529 1528 1528 1528 1528
1522 1523 1524 1524 1524 1525 1525 1526 1526 1527 1528 1528 1529 1529 1530 1530 1530 1531 1531 1531 1531 1532 1532 1532 1531 1531 1531 1530 1530 1530 1530 1530 1529 1529 1528 1528 1527 1527 1527 1526 1526 1526 1526
1519 1520 1520 1521 1521 1522 1522 1523 1523 1524 1524 1525 1525 1525 1526 1527 1527 1527 1528 1528 1528 1528 1528 1529 1528 1528 1528 1527 1527 1527 1527 1527 1527 1527 1526 1526 1525 1525 1524 1524 1524 1524 1524
1516 1516 1517 1517 1518 1518 1519 1519 1520 1520 1521 1521 1521 1522 1522 1522 1523 1523 1524 1524 1525 1525 1525 1525 1525 1525 1525 1524 1525 1524 1524 1524 1524 1524 1524 1523 1523 1522 1522 1522 1522 1522 1522
1512 1513 1513 1514 1514 1514 1515 1515 1516 1516 1517 1517 1517 1518 1518 1518 1518 1519 1519 1520 1520 1521 1521 1521 1521 1521 1521 1521 1521 1521 1521 1521 1521 1522 1521 1521 1521 1520 1520 1520 1519 1519 1519
1508 1509 1509 1510 1510 1510 1511 1511 1512 1513 1513 1513 1514 1514 1514 1514 1514 1515 1515 1515 1515 1516 1517 1518 1517 1517 1517 1518 1518 1518 1518 1518 1518 1518 1518 1518 1518 1517 1517 1517 1516 1516 1516
1504 1505 1506 1506 1506 1506 1507 1507 1508 1509 1509 1509 1510 1510 1510 1511 1511 1511 1511 1511 1511 1511 1512 1512 1513 1513 1513 1513 1514 1514 1514 1514 1514 1514 1515 1515 1515 1514 1514 1514 1513 1513 1513
1501 1501 1502 1502 1502 1502 1503 1503 1504 1504 1505 1505 1505 1506 1506 1506 1507 1507 1507 1507 1507 1507 1507 1507 1508 1508 1508 1509 1509 1510 1510 1510 1510 1511 1511 1511 1511 1511 1511 1510 1510 1510 1510
1498 1498 1498 1499 1499 1499 1499 1500 1500 1500 1501 1501 1501 1501 1501 1501 1502 1502 1503 1503 1503 1503 1503 1503 1503 1504 1504 1504 1505 1505 1506 1507 1507 1507 1507 1507 1508 1508 1508 1507 1507 1507 1507